timestamp,surface_pressure_avg,surface_temp_avg,battery_voltage,lat,long
2021-08-23 00:09:01+00:00,379.0396,18.29,12.97,47.84626,-54.09684
2021-08-23 00:19:01+00:00,378.0629,18.3,12.73,47.84626,-54.09684
2021-08-23 00:29:01+00:00,373.2396,18.3,12.73,47.84626,-54.09684
2021-08-23 00:39:01+00:00,370.3129,18.3,12.73,47.84626,-54.09684
2021-08-23 00:49:01+00:00,369.533,18.29,12.73,47.84626,-54.09684
2021-08-23 00:59:01+00:00,364.9396,18.3,12.73,47.84626,-54.09684
2021-08-23 01:09:01+00:00,359.5763,18.29,12.73,47.84626,-54.09684
2021-08-23 01:19:01+00:00,357.9946,18.2,12.73,47.84626,-54.09684
2021-08-23 01:29:01+00:00,353.2612,18.2,12.73,47.84626,-54.09684
2021-08-23 01:39:01+00:00,348.61300000000006,18.2,12.73,47.84626,-54.09684
2021-08-23 01:49:01+00:00,345.2029,18.2,12.73,47.84626,-54.09684
2021-08-23 01:59:01+00:00,340.5163,18.2,12.73,47.84626,-54.09684
2021-08-23 02:09:01+00:00,332.05800000000005,18.2,12.73,47.84626,-54.09684
2021-08-23 02:19:01+00:00,325.2013,18.2,12.73,47.84626,-54.09684
2021-08-23 02:29:01+00:00,317.3813,18.2,12.73,47.84626,-54.09684
2021-08-23 02:39:01+00:00,308.0247,18.2,12.73,47.84626,-54.09684
2021-08-23 02:49:01+00:00,298.1281,18.2,12.73,47.84626,-54.09684
2021-08-23 02:59:01+00:00,291.2847,18.2,12.73,47.84626,-54.09684
2021-08-23 03:09:01+00:00,282.3831,18.2,12.73,47.84626,-54.09684
2021-08-23 03:19:01+00:00,269.0131,18.2,12.73,47.84626,-54.09684
2021-08-23 03:29:01+00:00,256.9914,18.2,12.73,47.84626,-54.09684
2021-08-23 03:39:01+00:00,247.7848,18.2,12.73,47.84626,-54.09684
2021-08-23 03:49:01+00:00,238.0598,18.2,12.73,47.84626,-54.09684
2021-08-23 03:59:01+00:00,228.2498,18.2,12.73,47.84626,-54.09684
2021-08-23 04:09:01+00:00,221.4081,18.2,12.73,47.84626,-54.09684
2021-08-23 04:19:01+00:00,213.7931,18.2,12.65,47.84626,-54.09684
2021-08-23 04:29:01+00:00,204.0781,18.2,12.65,47.84626,-54.09684
2021-08-23 04:39:01+00:00,196.0797,18.2,12.65,47.84626,-54.09684
2021-08-23 04:49:01+00:00,191.9598,18.2,12.65,47.84626,-54.09684
2021-08-23 04:59:01+00:00,189.0549,18.2,12.65,47.84626,-54.09684
2021-08-23 05:09:01+00:00,187.7231,18.2,12.65,47.84626,-54.09684
2021-08-23 05:19:01+00:00,186.9182,18.19,12.73,47.84626,-54.09684
2021-08-23 05:29:01+00:00,185.0965,18.18,12.73,47.84626,-54.09684
2021-08-23 05:39:01+00:00,185.4432,18.17,12.73,47.84626,-54.09684
2021-08-23 05:49:01+00:00,184.7114,18.1,12.73,47.84626,-54.09684
2021-08-23 05:59:01+00:00,182.1714,17.9,12.73,47.84626,-54.09684
2021-08-23 06:09:01+00:00,181.5598,17.8,12.73,47.84626,-54.09684
2021-08-23 06:19:01+00:00,184.3098,17.8,12.65,47.84626,-54.09684
2021-08-23 06:29:01+00:00,188.3432,17.81,12.65,47.84626,-54.09684
2021-08-23 06:39:01+00:00,187.1131,17.88,12.65,47.84626,-54.09684
2021-08-23 06:49:01+00:00,187.2164,17.9,12.65,47.84626,-54.09684
2021-08-23 06:59:01+00:00,192.3865,17.9,12.65,47.84626,-54.09684
2021-08-23 07:09:01+00:00,195.2064,17.93,12.65,47.84626,-54.09684
2021-08-23 07:19:01+00:00,196.1915,17.98,12.65,47.84626,-54.09684
2021-08-23 07:29:01+00:00,199.1698,17.99,12.65,47.84626,-54.09684
2021-08-23 07:39:01+00:00,201.3948,18.0,12.65,47.84626,-54.09684
2021-08-23 07:49:01+00:00,201.0365,17.96,12.65,47.84626,-54.09684
2021-08-23 07:59:01+00:00,203.0331,17.9,12.65,47.84626,-54.09684
2021-08-23 08:09:01+00:00,209.2614,17.89,12.65,47.84626,-54.09684
2021-08-23 08:19:01+00:00,213.3981,17.9,12.65,47.84626,-54.09684
2021-08-23 08:29:01+00:00,217.2831,17.9,12.65,47.84626,-54.09684
2021-08-23 08:39:01+00:00,222.8064,17.9,12.65,47.84626,-54.09684
2021-08-23 08:49:01+00:00,229.0047,17.9,12.65,47.84626,-54.09684
2021-08-23 08:59:01+00:00,235.9797,17.9,12.65,47.84626,-54.09684
2021-08-23 09:09:01+00:00,243.9514,17.9,12.65,47.84626,-54.09684
2021-08-23 09:19:01+00:00,252.2098,17.9,12.73,47.84626,-54.09684
2021-08-23 09:29:01+00:00,258.9331,17.9,12.73,47.84626,-54.09684
2021-08-23 09:39:01+00:00,263.7464,17.9,12.73,47.84626,-54.09684
2021-08-23 09:49:01+00:00,270.6481,17.9,12.73,47.84626,-54.09684
2021-08-23 09:59:01+00:00,279.0247,17.9,12.73,47.84626,-54.09684
2021-08-23 10:09:01+00:00,286.7114,17.9,12.73,47.84626,-54.09684
2021-08-23 10:19:01+00:00,292.7347,17.88,13.44,47.84626,-54.09684
2021-08-23 10:29:01+00:00,300.8113,17.89,13.44,47.84626,-54.09684
2021-08-23 10:39:01+00:00,307.9913,17.89,13.44,47.84626,-54.09684
2021-08-23 10:49:01+00:00,313.0497,17.88,13.44,47.84626,-54.09684
2021-08-23 10:59:01+00:00,316.6913,17.87,13.44,47.84626,-54.09684
2021-08-23 11:09:01+00:00,323.4396,17.8,13.44,47.84626,-54.09684
2021-08-23 11:19:01+00:00,328.4664,17.8,14.24,47.84626,-54.09684
2021-08-23 11:29:01+00:00,333.2429,17.83,14.24,47.84626,-54.09684
2021-08-23 11:39:01+00:00,337.1246,17.87,14.24,47.84626,-54.09684
2021-08-23 11:49:01+00:00,339.1995,17.9,14.24,47.84626,-54.09684
2021-08-23 11:59:01+00:00,344.3013,17.9,14.24,47.84626,-54.09684
2021-08-23 12:09:01+00:00,348.6697,17.89,14.24,47.84626,-54.09684
2021-08-23 12:19:01+00:00,351.2647,17.89,14.4,47.84626,-54.09684
2021-08-23 12:29:01+00:00,349.1412,17.8,14.4,47.84626,-54.09684
2021-08-23 12:39:01+00:00,349.9597,17.8,14.4,47.84626,-54.09684
2021-08-23 12:49:01+00:00,352.5247,17.8,14.4,47.84626,-54.09684
2021-08-23 12:59:01+00:00,348.1963,17.7,14.4,47.84626,-54.09684
2021-08-23 13:09:01+00:00,344.043,17.7,14.4,47.84626,-54.09684
2021-08-23 13:19:01+00:00,341.8029,17.76,14.16,47.84626,-54.09684
2021-08-23 13:29:01+00:00,337.5163,17.8,14.16,47.84626,-54.09684
2021-08-23 13:39:01+00:00,332.2630000000001,17.8,14.16,47.84626,-54.09684
2021-08-23 13:49:01+00:00,328.8096,17.83,14.16,47.84626,-54.09684
2021-08-23 13:59:01+00:00,325.753,17.88,14.16,47.84626,-54.09684
2021-08-23 14:09:01+00:00,317.1346,17.9,14.16,47.84626,-54.09684
2021-08-23 14:19:01+00:00,310.0914,17.9,14.16,47.84626,-54.09684
2021-08-23 14:29:01+00:00,305.5997,17.89,14.16,47.84626,-54.09684
2021-08-23 14:39:01+00:00,297.2164,17.89,14.16,47.84626,-54.09684
2021-08-23 14:49:01+00:00,287.7263,17.89,14.16,47.84626,-54.09684
2021-08-23 14:59:01+00:00,282.7847,17.8,14.16,47.84626,-54.09684
2021-08-23 15:09:01+00:00,276.1948,17.8,14.16,47.84626,-54.09684
2021-08-23 15:19:01+00:00,264.5881,17.8,14.24,47.84626,-54.09684
2021-08-23 15:29:01+00:00,256.7014,17.8,14.24,47.84626,-54.09684
2021-08-23 15:39:01+00:00,250.2747,17.83,14.24,47.84626,-54.09684
2021-08-23 15:49:01+00:00,240.6781,17.84,14.24,47.84626,-54.09684
2021-08-23 15:59:01+00:00,229.0414,17.9,14.24,47.84626,-54.09684
2021-08-23 16:09:01+00:00,221.1048,17.91,14.24,47.84626,-54.09684
2021-08-23 16:19:01+00:00,214.0748,17.9,14.08,47.84626,-54.09684
2021-08-23 16:29:01+00:00,204.2614,17.9,14.08,47.84626,-54.09684
2021-08-23 16:39:01+00:00,194.9298,17.9,14.08,47.84626,-54.09684
2021-08-23 16:49:01+00:00,190.6115,17.89,14.08,47.84626,-54.09684
2021-08-23 16:59:01+00:00,185.8897,17.9,14.08,47.84626,-54.09684
2021-08-23 17:09:01+00:00,179.3498,17.9,14.08,47.84626,-54.09684
2021-08-23 17:19:01+00:00,175.8248,17.89,13.92,47.84626,-54.09684
2021-08-23 17:29:01+00:00,172.1082,17.87,13.92,47.84626,-54.09684
2021-08-23 17:39:01+00:00,166.0815,17.86,13.92,47.84626,-54.09684
2021-08-23 17:49:01+00:00,165.6432,17.86,13.92,47.84626,-54.09684
2021-08-23 17:59:01+00:00,168.3965,17.85,13.92,47.84626,-54.09684
2021-08-23 18:09:01+00:00,166.8832,17.83,13.92,47.84626,-54.09684
2021-08-23 18:19:01+00:00,166.3248,17.8,13.76,47.84626,-54.09684
2021-08-23 18:29:01+00:00,168.7515,17.8,13.76,47.84626,-54.09684
2021-08-23 18:39:01+00:00,169.4282,17.8,13.76,47.84626,-54.09684
2021-08-23 18:49:01+00:00,169.7682,17.79,13.76,47.84626,-54.09684
2021-08-23 18:59:01+00:00,173.9131,17.76,13.76,47.84626,-54.09684
2021-08-23 19:09:01+00:00,177.2032,17.78,13.76,47.84626,-54.09684
2021-08-23 19:19:01+00:00,176.2281,17.8,13.84,47.84626,-54.09684
2021-08-23 19:29:01+00:00,179.2298,17.85,13.84,47.84626,-54.09684
2021-08-23 19:39:01+00:00,185.1298,17.9,13.84,47.84626,-54.09684
2021-08-23 19:49:01+00:00,187.9681,17.9,13.84,47.84626,-54.09684
2021-08-23 19:59:01+00:00,193.0064,17.94,13.84,47.84626,-54.09684
2021-08-23 20:09:01+00:00,201.1348,17.96,13.84,47.84626,-54.09684
2021-08-23 20:19:01+00:00,206.7148,17.91,13.53,47.84626,-54.09684
2021-08-23 20:29:01+00:00,210.0231,17.9,13.53,47.84626,-54.09684
2021-08-23 20:39:01+00:00,217.2881,17.9,13.53,47.84626,-54.09684
2021-08-23 20:49:01+00:00,227.1297,17.9,13.53,47.84626,-54.09684
2021-08-23 20:59:01+00:00,230.8631,17.88,13.53,47.84626,-54.09684
2021-08-23 21:09:01+00:00,234.7697,17.85,13.53,47.84626,-54.09684
2021-08-23 21:19:01+00:00,242.2681,17.8,13.29,47.84626,-54.09684
2021-08-23 21:29:01+00:00,250.4098,17.8,13.29,47.84626,-54.09684
2021-08-23 21:39:01+00:00,257.4814,17.8,13.29,47.84626,-54.09684
2021-08-23 21:49:01+00:00,262.4947,17.8,13.29,47.84626,-54.09684
2021-08-23 21:59:01+00:00,270.0114,17.8,13.29,47.84626,-54.09684
2021-08-23 22:09:01+00:00,279.5881,17.8,13.29,47.84626,-54.09684
2021-08-23 22:19:01+00:00,288.2231,17.8,12.97,47.84626,-54.09684
2021-08-23 22:29:01+00:00,293.608,17.8,12.97,47.84626,-54.09684
2021-08-23 22:39:01+00:00,302.628,17.8,12.97,47.84626,-54.09684
2021-08-23 22:49:01+00:00,313.8597,17.8,12.97,47.84626,-54.09684
2021-08-23 22:59:01+00:00,323.8613,17.8,12.97,47.84626,-54.09684
2021-08-23 23:09:01+00:00,329.8929,17.8,12.97,47.84626,-54.09684
2021-08-23 23:19:01+00:00,337.0214,17.8,12.73,47.84626,-54.09684
2021-08-23 23:29:01+00:00,344.1429,17.8,12.73,47.84626,-54.09684
2021-08-23 23:39:01+00:00,349.7696,17.8,12.73,47.84626,-54.09684
2021-08-23 23:49:01+00:00,353.2296,17.8,12.73,47.84626,-54.09684
2021-08-23 23:59:01+00:00,356.7879,17.8,12.73,47.84626,-54.09684
